TimeCDT,TemperatureF,Dew PointF,Humidity,Sea Level PressureIn,VisibilityMPH,Wind Direction,Wind SpeedMPH,Gust SpeedMPH,PrecipitationIn,Events,Conditions,WindDirDegrees,DateUTC
12:15 AM,50.0,37.4,62,30.09,10.0,ENE,6.9,-,N/A,,Clear,60,2013-05-17 05:15:00
12:35 AM,50.0,37.4,62,30.09,10.0,ENE,6.9,-,N/A,,Clear,60,2013-05-17 05:35:00
12:55 AM,50.0,37.4,62,30.08,10.0,NE,8.1,-,N/A,,Clear,50,2013-05-17 05:55:00
1:15 AM,50.0,37.4,62,30.08,10.0,NE,8.1,-,N/A,,Clear,50,2013-05-17 06:15:00
1:35 AM,48.2,37.4,66,30.08,10.0,ENE,8.1,-,N/A,,Clear,60,2013-05-17 06:35:00
1:55 AM,48.2,37.4,66,30.08,10.0,NE,9.2,-,N/A,,Clear,50,2013-05-17 06:55:00
2:15 AM,48.2,37.4,66,30.07,10.0,ENE,10.4,-,N/A,,Clear,70,2013-05-17 07:15:00
2:35 AM,48.2,37.4,66,30.07,10.0,ENE,9.2,-,N/A,,Clear,70,2013-05-17 07:35:00
2:55 AM,46.4,37.4,71,30.07,10.0,ENE,9.2,-,N/A,,Clear,70,2013-05-17 07:55:00
3:15 AM,46.4,37.4,71,30.08,10.0,NE,10.4,-,N/A,,Clear,50,2013-05-17 08:15:00
3:35 AM,46.4,37.4,71,30.09,10.0,ENE,8.1,-,N/A,,Clear,70,2013-05-17 08:35:00
3:55 AM,46.4,37.4,71,30.10,10.0,East,10.4,16.1,N/A,,Clear,80,2013-05-17 08:55:00
4:15 AM,44.6,37.4,76,30.09,10.0,ENE,9.2,-,N/A,,Clear,60,2013-05-17 09:15:00
4:35 AM,44.6,37.4,76,30.10,10.0,East,5.8,-,N/A,,Clear,80,2013-05-17 09:35:00
4:55 AM,44.6,37.4,76,30.10,10.0,ENE,6.9,-,N/A,,Partly Cloudy,60,2013-05-17 09:55:00
5:15 AM,44.6,37.4,76,30.11,10.0,NE,4.6,-,N/A,,Scattered Clouds,50,2013-05-17 10:15:00
5:35 AM,44.6,37.4,76,30.11,10.0,NNE,3.5,-,N/A,,Clear,20,2013-05-17 10:35:00
5:55 AM,44.6,37.4,76,30.12,10.0,NNE,3.5,-,N/A,,Clear,20,2013-05-17 10:55:00
6:15 AM,44.6,37.4,76,30.13,10.0,ENE,6.9,-,N/A,,Partly Cloudy,60,2013-05-17 11:15:00
6:35 AM,44.6,37.4,76,30.15,10.0,NE,3.5,-,N/A,,Partly Cloudy,50,2013-05-17 11:35:00
7:15 AM,44.6,37.4,76,30.16,10.0,NNE,6.9,-,N/A,,Mostly Cloudy,30,2013-05-17 12:15:00
7:35 AM,46.4,37.4,71,30.16,10.0,NNE,8.1,-,N/A,,Scattered Clouds,20,2013-05-17 12:35:00
7:55 AM,44.6,39.2,81,30.16,10.0,NE,6.9,-,N/A,,Clear,50,2013-05-17 12:55:00
8:15 AM,46.4,39.2,76,30.16,10.0,East,5.8,-,N/A,,Mostly Cloudy,90,2013-05-17 13:15:00
8:35 AM,46.4,39.2,76,30.16,10.0,East,4.6,-,N/A,,Mostly Cloudy,80,2013-05-17 13:35:00
8:55 AM,48.2,39.2,71,30.16,10.0,ENE,5.8,-,N/A,,Overcast,70,2013-05-17 13:55:00
9:15 AM,48.2,39.2,71,30.16,10.0,East,4.6,-,N/A,,Overcast,90,2013-05-17 14:15:00
9:35 AM,48.2,39.2,71,30.17,10.0,ENE,3.5,-,N/A,,Overcast,60,2013-05-17 14:35:00
9:55 AM,50.0,39.2,66,30.18,10.0,NE,3.5,-,N/A,,Overcast,50,2013-05-17 14:55:00
10:15 AM,50.0,39.2,66,30.19,10.0,ENE,4.6,-,N/A,,Overcast,70,2013-05-17 15:15:00
10:35 AM,48.2,39.2,71,30.19,10.0,East,4.6,-,N/A,,Mostly Cloudy,80,2013-05-17 15:35:00
10:55 AM,48.2,39.2,71,30.20,10.0,East,6.9,-,N/A,,Partly Cloudy,80,2013-05-17 15:55:00
11:15 AM,48.2,39.2,71,30.20,10.0,East,6.9,-,N/A,,Mostly Cloudy,80,2013-05-17 16:15:00
11:35 AM,48.2,39.2,71,30.19,10.0,East,5.8,-,N/A,,Overcast,100,2013-05-17 16:35:00
11:55 AM,48.2,39.2,71,30.18,10.0,ESE,5.8,-,N/A,,Mostly Cloudy,110,2013-05-17 16:55:00
12:15 PM,50.0,39.2,66,30.18,10.0,SE,6.9,-,N/A,,Overcast,130,2013-05-17 17:15:00
12:35 PM,51.8,41.0,67,30.18,10.0,East,6.9,-,N/A,,Overcast,100,2013-05-17 17:35:00
12:55 PM,51.8,41.0,67,30.17,10.0,ESE,8.1,-,N/A,,Overcast,120,2013-05-17 17:55:00
1:15 PM,50.0,42.8,76,30.17,10.0,ENE,6.9,-,N/A,,Overcast,70,2013-05-17 18:15:00
1:35 PM,50.0,42.8,76,30.16,10.0,East,6.9,-,N/A,,Overcast,100,2013-05-17 18:35:00
2:15 PM,48.2,42.8,82,30.15,10.0,ESE,8.1,-,N/A,,Overcast,110,2013-05-17 19:15:00
2:35 PM,48.2,42.8,82,30.15,10.0,East,8.1,-,N/A,,Overcast,100,2013-05-17 19:35:00
2:55 PM,48.2,42.8,82,30.15,10.0,East,6.9,-,N/A,,Overcast,90,2013-05-17 19:55:00
3:15 PM,50.0,44.6,82,30.13,10.0,East,6.9,-,N/A,,Overcast,90,2013-05-17 20:15:00
3:35 PM,51.8,42.8,71,30.13,10.0,East,6.9,-,N/A,,Overcast,100,2013-05-17 20:35:00
3:55 PM,51.8,42.8,71,30.14,10.0,ESE,5.8,-,N/A,,Overcast,110,2013-05-17 20:55:00
4:15 PM,51.8,44.6,76,30.15,10.0,SE,4.6,-,N/A,,Overcast,130,2013-05-17 21:15:00
4:35 PM,51.8,44.6,76,30.15,10.0,ESE,5.8,-,N/A,,Overcast,120,2013-05-17 21:35:00
4:55 PM,51.8,44.6,76,30.15,10.0,ESE,6.9,-,N/A,,Overcast,120,2013-05-17 21:55:00
5:15 PM,51.8,44.6,76,30.15,10.0,ESE,4.6,-,N/A,,Overcast,110,2013-05-17 22:15:00
5:35 PM,51.8,44.6,76,30.14,10.0,ESE,4.6,-,N/A,,Overcast,110,2013-05-17 22:35:00
5:55 PM,51.8,44.6,76,30.14,10.0,ENE,3.5,-,N/A,,Overcast,70,2013-05-17 22:55:00
6:15 PM,51.8,44.6,76,30.14,10.0,East,3.5,-,N/A,,Overcast,100,2013-05-17 23:15:00
6:35 PM,51.8,44.6,76,30.14,10.0,East,3.5,-,N/A,,Overcast,80,2013-05-17 23:35:00
6:55 PM,51.8,44.6,76,30.14,10.0,Calm,Calm,-,N/A,,Overcast,0,2013-05-17 23:55:00
7:15 PM,51.8,44.6,76,30.14,10.0,Calm,Calm,-,N/A,,Overcast,0,2013-05-18 00:15:00
7:35 PM,51.8,44.6,76,30.14,10.0,ENE,3.5,-,N/A,,Overcast,70,2013-05-18 00:35:00
7:55 PM,51.8,44.6,76,30.14,10.0,East,3.5,-,N/A,,Overcast,90,2013-05-18 00:55:00
8:15 PM,51.8,42.8,71,30.14,10.0,ENE,5.8,-,N/A,,Overcast,60,2013-05-18 01:15:00
8:35 PM,51.8,42.8,71,30.14,10.0,ENE,4.6,-,N/A,,Overcast,60,2013-05-18 01:35:00
8:55 PM,51.8,42.8,71,30.15,10.0,ENE,4.6,-,N/A,,Overcast,70,2013-05-18 01:55:00
9:15 PM,51.8,42.8,71,30.16,10.0,ENE,4.6,-,N/A,,Overcast,70,2013-05-18 02:15:00
9:35 PM,51.8,42.8,71,30.16,10.0,ENE,3.5,-,N/A,,Overcast,60,2013-05-18 02:35:00
9:55 PM,50.0,42.8,76,30.16,10.0,ENE,4.6,-,N/A,,Overcast,60,2013-05-18 02:55:00
10:15 PM,50.0,42.8,76,30.15,10.0,ENE,4.6,-,N/A,,Overcast,70,2013-05-18 03:15:00
10:35 PM,50.0,42.8,76,30.15,10.0,Calm,Calm,-,N/A,,Overcast,0,2013-05-18 03:35:00
10:55 PM,51.8,42.8,71,30.14,10.0,East,5.8,-,N/A,,Overcast,80,2013-05-18 03:55:00
11:15 PM,50.0,42.8,76,30.14,10.0,ENE,5.8,-,N/A,,Overcast,60,2013-05-18 04:15:00
11:35 PM,50.0,42.8,76,30.14,10.0,ENE,4.6,-,N/A,,Overcast,70,2013-05-18 04:35:00
11:55 PM,50.0,42.8,76,30.14,10.0,East,5.8,-,N/A,,Overcast,90,2013-05-18 04:55:00